Regional Weather Roundup
Issued by NWS

Home | Current Version | Previous Version | Text Only | Print | Product List | Glossary On
Versions: 1 2 3 4 5 6 7 8 9 10 11 12 13 14 15 16 17 18 19 20 21 22 23 24 25 26 27 28 29 30 31 32 33 34 35 36 37 38 39 40 41 42 43 44 45 46 47 48 49 50
651
ASUS43 KFSD 220502
RWRSD

WEATHER ROUNDUP FOR SOUTH DAKOTA
NATIONAL WEATHER SERVICE SIOUX FALLS SD
1200 AM CDT SUN OCT 22 2017

NOTE: "FAIR" INDICATES FEW OR NO CLOUDS BELOW 12,000 FEET WITH NO
SIGNIFICANT WEATHER AND/OR OBSTRUCTIONS TO VISIBILITY.


SDZ001>005-009-010-012>017-220600-
NORTHWEST AND NORTH CENTRAL SOUTH DAKOTA

CITY           SKY/WX    TMP DP  RH WIND       PRES   REMARKS
BUFFALO          N/A     35  22  58 W7        29.85F WCI  29
MOBRIDGE       CLEAR     45  32  60 NW6       29.85F
$$

SDZ012>016-024>037-041>051-057-063-072>074-220600-
SOUTHWEST AND SOUTH CENTRAL SOUTH DAKOTA

CITY           SKY/WX    TMP DP  RH WIND       PRES   REMARKS
RAPID CTY ARPT CLEAR     35  17  47 NW6       29.98S
PIERRE         CLEAR     45  31  58 W8        29.93R
CUSTER         CLEAR     30  11  45 W3        30.00S
ELLSWORTH AFB  CLEAR     36  16  45 W8        29.97
PHILIP         CLEAR     37  27  67 W9        29.96S
PINE RIDGE     CLEAR     27  22  81 CALM      30.01F
SPEARFISH      FAIR      34  18  51 CALM      29.97F
WINNER         FAIR      44  29  55 SW7       29.98R
$$

SDZ004>011-016>023-039-040-220600-
NORTHEAST SOUTH DAKOTA

CITY           SKY/WX    TMP DP  RH WIND       PRES   REMARKS
ABERDEEN       PTCLDY    40  37  89 SW7       29.86R
WATERTOWN      CLEAR     43  39  86 SW9       29.86R
BROOKINGS      CLEAR     43  38  82 W12       29.92R
SISSETON         N/A     51  40  65 W10       29.80R
$$

SDZ017-020-022-023-036>040-048>070-220600-
SOUTHEAST SOUTH DAKOTA

CITY           SKY/WX    TMP DP  RH WIND       PRES   REMARKS
SIOUX FALLS    CLEAR     45  38  76 W5        29.95R
HURON          PTCLDY    43  36  76 SW10      29.93R
CHAMBERLAIN    CLEAR     41  34  76 SW7       29.97R
MITCHELL       CLEAR     44  36  73 SW8       29.96R
YANKTON        CLEAR     42  35  76 W7        29.97R
$$

ABBREVIATIONS USED IN REMARKS
   TC - TEMPERATURE IN CELSIUS
  WCI - WIND CHILL INDEX
   HX - HEAT INDEX
  VSB - VISIBILITY





USA.gov is the U.S. government's official web portal to all federal, state and local government web resources and services.